Skip Page Navigation
NASA JPL Caltech
NASA Logo - Jet Propulsion Laboratory + View the NASA Portal
+ Center for Near-Earth Object Studies
JPL Home Earth Solar System Stars & Galaxies Technology
JPL Solar System Dynamics
BODIES ORBITS EPHEMERIDES TOOLS PHYSICAL DATA DISCOVERY FAQ SITE MAP
JPL Small-Body Database Browser
Search: [ help ]  
382476 (2000 WC190)
Classification: Main-belt Asteroid          SPK-ID: 2382476
Ephemeris | Orbit Diagram | Orbital Elements | Mission Design | Physical Parameters | Discovery Circumstances | Close-Approach Data ]

[ hide orbit diagram ]

For accurate long-term ephemerides, please instead use our Horizons system.This orbit viewer was implemented using two-body methods, and hence should not be used for determining accurate long-term trajectories (over several years or decades) or planetary encounter circumstances.


[ revert to old Java-based viewer ]

Orbital Elements at Epoch 2459000.5 (2020-May-31.0) TDB
Reference: JPL 6 (heliocentric ecliptic J2000)
 Element Value Uncertainty (1-sigma)   Units 
e .3483412406152759 2.376e-07  
a 2.586554559921818 7.025e-08 au
q 1.685550935599553 6.4246e-07 au
i 6.004130498298579 1.3183e-05 deg
node 49.26393776307417 0.0001614 deg
peri 309.7645433784413 0.00018187 deg
M 276.7707841109766 9.6585e-05 deg
tp 2459351.780623369376
(2021-May-17.28062337)
0.0004217 TDB
period 1519.430683830984
4.16
6.1901e-05
1.695e-07
d
yr
n .2369308477385238 9.6524e-09 deg/d
Q 3.487558184244083 9.4721e-08 au
  Orbit Determination Parameters
   # obs. used (total)      79  
   data-arc span      6267 days (17.16 yr)  
   first obs. used      2000-11-18  
   last obs. used      2018-01-15  
   planetary ephem.      DE431  
   SB-pert. ephem.      SB431-N16  
   condition code      0  
   norm. resid. RMS      .74849  
   source      ORB  
   producer      Otto Matic  
   solution date      2019-Jul-13 14:19:42  

Additional Information
 Earth MOID = .690394 au 
 Jupiter MOID = 1.98347 au 
 T_jup = 3.326 
[ show covariance matrix ]

Ephemeris | Orbit Diagram | Orbital Elements | Mission Design | Physical Parameters | Discovery Circumstances | Close-Approach Data ]

Physical Parameter Table
Parameter Symbol Value Units Sigma Reference Notes
absolute magnitude H 17.2   n/a MPO434370  

382476 (2000 WC190)          Discovered 2000-Nov-18 by LONEOS at Anderson Mesa
Reference: Last Updated: 2014-01-21

[ hide close-approach data ]
Close-Approach Data   ...sorted by Date/Time (TDB)
Date/Time (TDB) Time Uncertainty
(days_HH:MM)
Body Nominal Distance (au) Minimum Distance (au) Maximum Distance (au) V-relative (km/s) V-infinity (km/s) JD (TDB) Time Uncertainty (minutes) Semi-major axis (km) Semi-minor axis (km) range-LOV angle (deg) N-sigma BP Orbit Ref. Reference Modified
1969-Jun-26 14:20 00:05 Jupiter 1.99297464593494 1.99297214768613 1.99297714426622 1.11906149542633 0.634263596647147 2440399.096930602 5.38836771375208 2943.51209272916 1734.26966696489 -4.01722905725219 342943.473961873 T 6 CATAB v2.0e-lin.ifort 2019-Jul-13 14:19:44 2019-Jul-13 14:19
2039-Dec-06 16:28 00:02 Jupiter 1.98207575483166 1.98207267703701 1.98207884018866 0.866871247348939 n/a 2466129.185776512 1.77178062654902 6713.48536624196 63.839874113934 88.8069430462221 4642526.98239841 F 6 CATAB v2.0e-lin.ifort 2019-Jul-13 14:19:44 2019-Jul-13 14:19
2123-Apr-21 19:47 00:10 Jupiter 1.96446869116676 1.9644667084735 1.96447067420016 1.00467015979742 0.38343126323046 2496580.324293696 9.70230697653387 16471.8248365236 3168.47383656291 0.538362269808798 262809.240579715 T 6 CATAB v2.0e-lin.ifort 2019-Jul-13 14:19:44 2019-Jul-13 14:19

Alternate Designations
 2000 WC190 = 2004 TE119 
Ephemeris | Orbit Diagram | Orbital Elements | Mission Design | Physical Parameters | Discovery Circumstances | Close-Approach Data ]
ABOUT SSD CREDITS/AWARDS PRIVACY/COPYRIGHT GLOSSARY LINKS
FirstGov 2020-Aug-07 01:40 UT
(server date/time)  
NASA Home Page
Site Manager:   Ryan S. Park
Webmaster  Alan B. Chamberlin